Location: Gilevgi
(36.8751°N, 30.0581°E)
Time: 09:17:38
(UTC+00:00)

IRS-P3 - Pass Details

Date: 17 March 2026
Orbit: 810 x 816 km, 99.0° (Epoch: 20 April)

Event Time Altitude Azimuth Distance (km) Brightness Sun altitude
Rises 17:41:47 0° 213° (SSW) 3,328 7.6 -19.3°
Reaches altitude 10° 17:45:26 10° 239° (WSW) 2,402 7.2 -20.0°
Maximum altitude 17:47:57 13° 268° (W) 2,170 7.3 -20.5°
Drops below altitude 10° 17:50:29 10° 297° (WNW) 2,409 7.7 -20.9°
Sets 17:54:11 0° 323° (NW) 3,346 8.1 -21.7°
